Time,TemperatureF,DewpointF,PressureIn,WindDirection,WindDirectionDegrees,WindSpeedMPH,WindSpeedGustMPH,Humidity,HourlyPrecipIn,Conditions,Clouds,dailyrainin,SoftwareType,DateUTC
2013-02-16 00:11:00,42.0,37.0,29.95,WNW,296,8.0,-999.0,81,-99.99,,,0.00,weatherlink.com 1.10,2013-02-16 05:11:00,
2013-02-16 00:26:00,41.8,37.0,29.95,NW,311,4.0,-999.0,82,-99.99,,,0.00,weatherlink.com 1.10,2013-02-16 05:26:00,
2013-02-16 00:41:00,41.5,37.0,29.95,NW,306,4.0,-999.0,83,-99.99,,,0.00,weatherlink.com 1.10,2013-02-16 05:41:00,
2013-02-16 00:56:00,41.3,37.0,29.95,NNW,337,2.0,-999.0,85,-99.99,,,0.00,weatherlink.com 1.10,2013-02-16 05:56:00,
2013-02-16 01:11:00,41.2,37.0,29.95,NW,323,8.0,-999.0,86,-99.99,,,0.00,weatherlink.com 1.10,2013-02-16 06:11:00,
2013-02-16 01:26:00,41.0,37.0,29.95,NW,320,9.0,-999.0,86,-99.99,,,0.00,weatherlink.com 1.10,2013-02-16 06:26:00,
2013-02-16 01:41:00,40.7,37.0,29.95,NW,319,10.0,-999.0,87,-99.99,,,0.00,weatherlink.com 1.10,2013-02-16 06:41:00,
2013-02-16 01:56:00,40.4,37.0,29.94,NNW,345,3.0,-999.0,87,-99.99,,,0.00,weatherlink.com 1.10,2013-02-16 06:56:00,
2013-02-16 02:17:00,40.0,37.0,29.93,NNW,332,6.0,-999.0,88,-99.99,,,0.00,weatherlink.com 1.10,2013-02-16 07:17:00,
2013-02-16 02:26:00,39.7,37.0,29.93,NNW,332,4.0,-999.0,88,-99.99,,,0.00,weatherlink.com 1.10,2013-02-16 07:26:00,
2013-02-16 02:41:00,39.6,37.0,29.93,NNW,330,11.0,-999.0,89,-99.99,,,0.00,weatherlink.com 1.10,2013-02-16 07:41:00,
2013-02-16 02:56:00,39.4,37.0,29.92,NNW,327,7.0,-999.0,89,-99.99,,,0.00,weatherlink.com 1.10,2013-02-16 07:56:00,
2013-02-16 03:11:00,39.2,36.0,29.91,NNW,338,10.0,-999.0,89,-99.99,,,0.00,weatherlink.com 1.10,2013-02-16 08:11:00,
2013-02-16 03:26:00,39.0,36.0,29.92,NNW,338,6.0,-999.0,90,-99.99,,,0.00,weatherlink.com 1.10,2013-02-16 08:26:00,
2013-02-16 03:41:00,38.8,36.0,29.91,NNW,336,0.0,-999.0,90,-99.99,,,0.00,weatherlink.com 1.10,2013-02-16 08:41:00,
2013-02-16 03:56:00,38.7,36.0,29.91,NW,322,8.0,-999.0,90,-99.99,,,0.00,weatherlink.com 1.10,2013-02-16 08:56:00,
2013-02-16 04:11:00,38.7,36.0,29.91,NNW,329,5.0,-999.0,90,-99.99,,,0.00,weatherlink.com 1.10,2013-02-16 09:11:00,
2013-02-16 04:26:00,38.5,36.0,29.91,NNW,327,9.0,-999.0,90,-99.99,,,0.00,weatherlink.com 1.10,2013-02-16 09:26:00,
2013-02-16 04:41:00,38.4,36.0,29.91,NW,309,9.0,-999.0,91,-99.99,,,0.00,weatherlink.com 1.10,2013-02-16 09:41:00,
2013-02-16 04:56:00,38.4,36.0,29.92,NW,326,7.0,-999.0,91,-99.99,,,0.00,weatherlink.com 1.10,2013-02-16 09:56:00,
2013-02-16 05:11:00,38.3,36.0,29.92,NNW,338,2.0,-999.0,91,-99.99,,,0.00,weatherlink.com 1.10,2013-02-16 10:11:00,
2013-02-16 05:26:00,38.2,36.0,29.92,NNW,336,8.0,-999.0,91,-99.99,,,0.00,weatherlink.com 1.10,2013-02-16 10:26:00,
2013-02-16 05:41:00,38.0,36.0,29.91,North,360,8.0,-999.0,91,-99.99,,,0.00,weatherlink.com 1.10,2013-02-16 10:41:00,
2013-02-16 05:56:00,37.9,36.0,29.91,NNW,333,5.0,-999.0,91,-99.99,,,0.00,weatherlink.com 1.10,2013-02-16 10:56:00,
2013-02-16 06:11:00,37.7,35.0,29.91,NNW,333,6.0,-999.0,91,-99.99,,,0.00,weatherlink.com 1.10,2013-02-16 11:11:00,
2013-02-16 06:31:00,37.6,35.0,29.89,NNW,336,7.0,-999.0,91,-99.99,,,0.00,weatherlink.com 1.10,2013-02-16 11:31:00,
2013-02-16 06:41:00,37.6,36.0,29.89,NNW,348,9.0,-999.0,92,-99.99,,,0.00,weatherlink.com 1.10,2013-02-16 11:41:00,
2013-02-16 06:56:00,37.7,36.0,29.91,North,355,14.0,-999.0,92,-99.99,,,0.00,weatherlink.com 1.10,2013-02-16 11:56:00,
2013-02-16 07:11:00,37.6,36.0,29.89,NNW,342,5.0,-999.0,92,-99.99,,,0.00,weatherlink.com 1.10,2013-02-16 12:11:00,
2013-02-16 07:26:00,37.7,36.0,29.91,NNW,343,0.0,-999.0,92,-99.99,,,0.00,weatherlink.com 1.10,2013-02-16 12:26:00,
2013-02-16 07:41:00,37.7,36.0,29.91,NNW,347,4.0,-999.0,92,-99.99,,,0.00,weatherlink.com 1.10,2013-02-16 12:41:00,
2013-02-16 07:56:00,37.8,36.0,29.90,North,351,2.0,-999.0,92,-99.99,,,0.00,weatherlink.com 1.10,2013-02-16 12:56:00,
2013-02-16 08:11:00,37.8,36.0,29.91,NNW,345,11.0,-999.0,92,-99.99,,,0.00,weatherlink.com 1.10,2013-02-16 13:11:00,
2013-02-16 08:26:00,37.9,36.0,29.91,NNW,348,12.0,-999.0,92,-99.99,,,0.00,weatherlink.com 1.10,2013-02-16 13:26:00,
2013-02-16 08:41:00,37.9,36.0,29.91,NNW,340,10.0,-999.0,92,-99.99,,,0.00,weatherlink.com 1.10,2013-02-16 13:41:00,
2013-02-16 08:56:00,37.9,36.0,29.91,North,350,8.0,-999.0,91,-99.99,,,0.00,weatherlink.com 1.10,2013-02-16 13:56:00,
2013-02-16 09:11:00,38.0,36.0,29.91,NNW,335,12.0,-999.0,92,-99.99,,,0.00,weatherlink.com 1.10,2013-02-16 14:11:00,
2013-02-16 09:26:00,38.1,36.0,29.91,NNW,337,7.0,-999.0,92,-99.99,,,0.00,weatherlink.com 1.10,2013-02-16 14:26:00,
2013-02-16 09:41:00,38.0,36.0,29.90,NNW,344,8.0,-999.0,91,-99.99,,,0.00,weatherlink.com 1.10,2013-02-16 14:41:00,
2013-02-16 09:56:00,37.9,36.0,29.91,North,350,4.0,-999.0,91,-99.99,,,0.00,weatherlink.com 1.10,2013-02-16 14:56:00,
2013-02-16 10:11:00,37.8,36.0,29.91,North,355,10.0,-999.0,91,-99.99,,,0.00,weatherlink.com 1.10,2013-02-16 15:11:00,
2013-02-16 10:26:00,37.7,36.0,29.90,NNW,346,7.0,-999.0,92,-99.99,,,0.00,weatherlink.com 1.10,2013-02-16 15:26:00,
2013-02-16 10:41:00,37.1,35.0,29.90,North,360,12.0,-999.0,92,-99.99,,,0.00,weatherlink.com 1.10,2013-02-16 15:41:00,
2013-02-16 10:56:00,37.0,35.0,29.89,North,360,12.0,-999.0,93,-99.99,,,0.00,weatherlink.com 1.10,2013-02-16 15:56:00,
2013-02-16 11:11:00,36.9,35.0,29.89,North,5,12.0,-999.0,93,-99.99,,,0.00,weatherlink.com 1.10,2013-02-16 16:11:00,
2013-02-16 11:26:00,36.7,35.0,29.88,North,5,11.0,-999.0,93,-99.99,,,0.00,weatherlink.com 1.10,2013-02-16 16:26:00,
2013-02-16 11:41:00,36.8,35.0,29.88,North,9,6.0,-999.0,93,-99.99,,,0.00,weatherlink.com 1.10,2013-02-16 16:41:00,
2013-02-16 11:56:00,36.7,35.0,29.88,North,9,8.0,-999.0,93,-99.99,,,0.01,weatherlink.com 1.10,2013-02-16 16:56:00,
2013-02-16 12:11:00,36.4,35.0,29.88,North,360,6.0,-999.0,93,-99.99,,,0.01,weatherlink.com 1.10,2013-02-16 17:11:00,
2013-02-16 12:26:00,36.3,35.0,29.87,NNW,348,6.0,-999.0,93,-99.99,,,0.02,weatherlink.com 1.10,2013-02-16 17:26:00,
2013-02-16 12:41:00,35.8,34.0,29.86,North,5,9.0,-999.0,94,-99.99,,,0.03,weatherlink.com 1.10,2013-02-16 17:41:00,
2013-02-16 12:56:00,35.4,34.0,29.86,North,360,8.0,-999.0,94,-99.99,,,0.04,weatherlink.com 1.10,2013-02-16 17:56:00,
2013-02-16 13:11:00,35.3,34.0,29.86,North,355,9.0,-999.0,94,-99.99,,,0.05,weatherlink.com 1.10,2013-02-16 18:11:00,
2013-02-16 13:26:00,35.5,34.0,29.85,North,355,3.0,-999.0,94,-99.99,,,0.06,weatherlink.com 1.10,2013-02-16 18:26:00,
2013-02-16 13:41:00,35.4,34.0,29.84,North,350,10.0,-999.0,95,-99.99,,,0.06,weatherlink.com 1.10,2013-02-16 18:41:00,
2013-02-16 13:56:00,35.2,34.0,29.85,North,360,9.0,-999.0,95,-99.99,,,0.07,weatherlink.com 1.10,2013-02-16 18:56:00,
2013-02-16 14:11:00,35.2,34.0,29.83,North,355,7.0,-999.0,95,-99.99,,,0.08,weatherlink.com 1.10,2013-02-16 19:11:00,
2013-02-16 14:26:00,35.2,34.0,29.83,North,360,12.0,-999.0,95,-99.99,,,0.09,weatherlink.com 1.10,2013-02-16 19:26:00,
2013-02-16 14:41:00,35.4,34.0,29.82,North,355,12.0,-999.0,95,-99.99,,,0.10,weatherlink.com 1.10,2013-02-16 19:41:00,
2013-02-16 14:56:00,35.5,34.0,29.82,North,9,12.0,-999.0,95,-99.99,,,0.10,weatherlink.com 1.10,2013-02-16 19:56:00,
2013-02-16 15:11:00,35.6,34.0,29.82,North,5,14.0,-999.0,95,-99.99,,,0.11,weatherlink.com 1.10,2013-02-16 20:11:00,
2013-02-16 15:26:00,35.4,34.0,29.81,North,5,15.0,-999.0,95,-99.99,,,0.11,weatherlink.com 1.10,2013-02-16 20:26:00,
2013-02-16 15:41:00,35.2,34.0,29.82,North,9,15.0,-999.0,95,-99.99,,,0.12,weatherlink.com 1.10,2013-02-16 20:41:00,
2013-02-16 15:56:00,35.2,34.0,29.81,NNE,17,14.0,-999.0,94,-99.99,,,0.12,weatherlink.com 1.10,2013-02-16 20:56:00,
2013-02-16 16:11:00,35.2,34.0,29.80,NNE,21,14.0,-999.0,94,-99.99,,,0.13,weatherlink.com 1.10,2013-02-16 21:11:00,
2013-02-16 16:26:00,35.3,34.0,29.80,North,5,11.0,-999.0,94,-99.99,,,0.13,weatherlink.com 1.10,2013-02-16 21:26:00,
2013-02-16 16:41:00,35.6,34.0,29.80,North,355,10.0,-999.0,94,-99.99,,,0.13,weatherlink.com 1.10,2013-02-16 21:41:00,
2013-02-16 16:56:00,35.3,34.0,29.79,NNW,330,11.0,-999.0,93,-99.99,,,0.13,weatherlink.com 1.10,2013-02-16 21:56:00,
2013-02-16 17:11:00,35.0,34.0,29.78,NNW,342,15.0,-999.0,94,-99.99,,,0.14,weatherlink.com 1.10,2013-02-16 22:11:00,
2013-02-16 17:26:00,35.1,34.0,29.79,North,360,18.0,-999.0,94,-99.99,,,0.14,weatherlink.com 1.10,2013-02-16 22:26:00,
2013-02-16 17:41:00,35.2,33.0,29.78,NW,320,11.0,-999.0,92,-99.99,,,0.14,weatherlink.com 1.10,2013-02-16 22:41:00,
2013-02-16 17:56:00,35.7,33.0,29.78,NNW,338,16.0,-999.0,90,-99.99,,,0.14,weatherlink.com 1.10,2013-02-16 22:56:00,
2013-02-16 18:11:00,35.9,33.0,29.78,NNW,334,10.0,-999.0,89,-99.99,,,0.14,weatherlink.com 1.10,2013-02-16 23:11:00,
2013-02-16 18:26:00,35.5,33.0,29.78,NNW,339,16.0,-999.0,90,-99.99,,,0.14,weatherlink.com 1.10,2013-02-16 23:26:00,
2013-02-16 18:41:00,35.3,33.0,29.78,NNW,339,14.0,-999.0,91,-99.99,,,0.14,weatherlink.com 1.10,2013-02-16 23:41:00,
2013-02-16 18:56:00,35.2,33.0,29.79,NW,315,17.0,-999.0,91,-99.99,,,0.14,weatherlink.com 1.10,2013-02-16 23:56:00,
2013-02-16 19:11:00,35.0,33.0,29.79,NNW,335,17.0,-999.0,91,-99.99,,,0.14,weatherlink.com 1.10,2013-02-17 00:11:00,
2013-02-16 19:26:00,34.3,32.0,29.79,NNW,338,16.0,-999.0,91,-99.99,,,0.14,weatherlink.com 1.10,2013-02-17 00:26:00,
2013-02-16 19:41:00,34.0,32.0,29.78,NNW,348,16.0,-999.0,92,-99.99,,,0.14,weatherlink.com 1.10,2013-02-17 00:41:00,
2013-02-16 19:56:00,33.9,32.0,29.77,NNW,331,12.0,-999.0,93,-99.99,,,0.14,weatherlink.com 1.10,2013-02-17 00:56:00,
2013-02-16 20:11:00,33.8,32.0,29.78,NW,325,18.0,-999.0,94,-99.99,,,0.15,weatherlink.com 1.10,2013-02-17 01:11:00,
2013-02-16 20:26:00,33.6,32.0,29.78,NNW,342,11.0,-999.0,94,-99.99,,,0.15,weatherlink.com 1.10,2013-02-17 01:26:00,
2013-02-16 20:41:00,33.1,32.0,29.78,NNW,348,23.0,-999.0,94,-99.99,,,0.15,weatherlink.com 1.10,2013-02-17 01:41:00,
2013-02-16 20:56:00,32.8,31.0,29.77,North,355,14.0,-999.0,94,-99.99,,,0.15,weatherlink.com 1.10,2013-02-17 01:56:00,
2013-02-16 21:11:00,32.3,31.0,29.77,NNW,347,14.0,-999.0,94,-99.99,,,0.15,weatherlink.com 1.10,2013-02-17 02:11:00,
2013-02-16 21:26:00,32.1,31.0,29.77,NNW,337,14.0,-999.0,95,-99.99,,,0.15,weatherlink.com 1.10,2013-02-17 02:26:00,
2013-02-16 21:41:00,31.9,31.0,29.77,NNW,338,7.0,-999.0,95,-99.99,,,0.15,weatherlink.com 1.10,2013-02-17 02:41:00,
2013-02-16 21:56:00,31.7,31.0,29.77,North,9,21.0,-999.0,95,-99.99,,,0.15,weatherlink.com 1.10,2013-02-17 02:56:00,
2013-02-16 22:11:00,31.5,30.0,29.76,NNW,346,7.0,-999.0,95,-99.99,,,0.15,weatherlink.com 1.10,2013-02-17 03:11:00,
2013-02-16 22:26:00,31.6,30.0,29.75,NNW,331,8.0,-999.0,95,-99.99,,,0.15,weatherlink.com 1.10,2013-02-17 03:26:00,
2013-02-16 22:41:00,32.0,31.0,29.75,North,355,9.0,-999.0,95,-99.99,,,0.15,weatherlink.com 1.10,2013-02-17 03:41:00,
2013-02-16 22:56:00,32.6,31.0,29.74,North,9,17.0,-999.0,92,-99.99,,,0.15,weatherlink.com 1.10,2013-02-17 03:56:00,
2013-02-16 23:11:00,33.2,28.0,29.72,North,360,14.0,-999.0,82,-99.99,,,0.15,weatherlink.com 1.10,2013-02-17 04:11:00,
2013-02-16 23:26:00,33.8,27.0,29.73,NNW,336,15.0,-999.0,77,-99.99,,,0.15,weatherlink.com 1.10,2013-02-17 04:26:00,
2013-02-16 23:41:00,33.9,26.0,29.72,NNW,331,17.0,-999.0,73,-99.99,,,0.15,weatherlink.com 1.10,2013-02-17 04:41:00,
2013-02-16 23:56:00,33.9,26.0,29.71,North,355,10.0,-999.0,73,-99.99,,,0.15,weatherlink.com 1.10,2013-02-17 04:56:00,